Albany, GA

3:28 PM EST on February 24, 2018 (GMT -0500)
Southwest Georgia Regional

Weather History for KABY - January, 2013

Change the Weather History Date:

Tuesday, January 29, 2013

  Actual Average Record
Temperature  
Mean Temperature 67 °F 50 °F  
Max Temperature 82 °F 61 °F 86 °F (2003)
Min Temperature 52 °F 39 °F 12 °F (1986)
Degree Days  
Heating Degree Days 0 15  
Month to date heating degree days 251 459  
Since 1 July heating degree days 903 1172  
Cooling Degree Days 2 0  
Month to date cooling degree days 27 0  
Year to date cooling degree days 27 0  
Growing Degree Days 16 (Base 50)    
Moisture  
Dew Point 56 °F    
Average Humidity 73    
Maximum Humidity 100    
Minimum Humidity 45    
Precipitation  
Precipitation 0.00 in 0.19 in 0.42 in (2005)
Month to date precipitation 0.42 4.42  
Year to date precipitation 0.42 4.42  
Sea Level Pressure  
Sea Level Pressure 30.19 in    
Wind  
Wind Speed 8 mph (SSE)    
Max Wind Speed 20 mph    
Max Gust Speed 24 mph    
Visibility 5 miles    
Events      
T = Trace of Precipitation, MM = Missing Value Source: NWS Daily Summary

Daily Weather History Graph

Daily Weather History Graph

Search for Another Location

Airport or City:

Trip Planner

Search our weather history database for the weather conditions in past years. The results will help you decide how hot, cold, wet, or windy it might be!

Date:

Astronomy

Jan. 29, 2013 Rise Set
Actual Time 7:31 AM EST 6:09 PM EST
Civil Twilight 7:05 AM EST 6:34 PM EST
Nautical Twilight 6:36 AM EST 7:03 PM EST
Astronomical Twilight 6:07 AM EST 7:32 PM EST
Moon 8:49 PM EST (1/29) 8:40 AM EST (1/29)
Length of Visible Light 11h 29m
Length of Day
10h 37m
Waning Gibbous, 94% of the Moon is Illuminated
Jan 29
Waning Gibbous
Feb 3
Last Quarter
Feb 10
New
Feb 17
First Quarter
Feb 25
Full

Hourly Weather History & Observations

Time (EST) Temp. Heat Index Dew Point Humidity Pressure Visibility Wind Dir Wind Speed Gust Speed Precip Events Conditions
12:53 AM 55.9 °F - 54.0 °F 93% 30.26 in 4.0 mi Calm Calm - N/A   Clear
1:37 AM 53.6 °F - 53.6 °F 100% 30.25 in 1.8 mi Calm Calm - N/A   Clear
1:53 AM 55.0 °F - 53.1 °F 93% 30.25 in 1.2 mi Calm Calm - N/A   Partly Cloudy
1:59 AM 53.6 °F - 53.6 °F 100% 30.25 in 3.0 mi Calm Calm - N/A   Mostly Cloudy
2:02 AM 53.6 °F - 51.8 °F 94% 30.25 in 1.8 mi Calm Calm - N/A   Mostly Cloudy
2:09 AM 53.6 °F - 51.8 °F 94% 30.25 in 1.5 mi Calm Calm - N/A   Scattered Clouds
2:16 AM 53.6 °F - 53.6 °F 100% 30.25 in 0.8 mi Calm Calm - N/A   Mist
2:24 AM 53.6 °F - 51.8 °F 94% 30.24 in 1.2 mi Calm Calm - N/A   Partly Cloudy
2:30 AM 53.6 °F - 51.8 °F 94% 30.24 in 3.0 mi Calm Calm - N/A   Clear
2:43 AM 53.6 °F - 51.8 °F 94% 30.24 in 1.8 mi Calm Calm - N/A   Clear
2:53 AM 54.0 °F - 52.0 °F 93% 30.24 in 2.0 mi Calm Calm - N/A   Clear
3:06 AM 53.6 °F - 51.8 °F 94% 30.24 in 3.0 mi Calm Calm - N/A   Clear
3:24 AM 53.6 °F - 51.8 °F 94% 30.23 in 1.5 mi Calm Calm - N/A   Clear
3:26 AM 53.6 °F - 51.8 °F 94% 30.24 in 0.8 mi Calm Calm - N/A   Mist
3:36 AM 53.6 °F - 51.8 °F 94% 30.24 in 2.0 mi Calm Calm - N/A   Mostly Cloudy
3:44 AM 53.6 °F - 51.8 °F 94% 30.23 in 3.0 mi Calm Calm - N/A   Mostly Cloudy
3:53 AM 52.0 °F - 51.1 °F 97% 30.23 in 2.0 mi Calm Calm - N/A   Mostly Cloudy
4:04 AM 51.8 °F - 50.0 °F 94% 30.23 in 3.0 mi Calm Calm - N/A   Scattered Clouds
4:53 AM 55.0 °F - 53.1 °F 93% 30.22 in 4.0 mi East 3.5 mph - N/A   Overcast
5:53 AM 55.9 °F - 55.0 °F 97% 30.22 in 4.0 mi ENE 3.5 mph - N/A   Overcast
6:53 AM 57.9 °F - 55.9 °F 93% 30.22 in 4.0 mi Calm Calm - N/A   Overcast
7:44 AM 57.2 °F - 55.4 °F 94% 30.23 in 2.0 mi Calm Calm - N/A   Mostly Cloudy
7:53 AM 57.0 °F - 55.9 °F 96% 30.23 in 5.0 mi Calm Calm - N/A   Overcast
8:53 AM 64.0 °F - 61.0 °F 90% 30.22 in 5.0 mi SSE 8.1 mph - N/A   Mostly Cloudy
9:53 AM 70.0 °F - 61.0 °F 73% 30.22 in 9.0 mi SSE 6.9 mph - N/A   Partly Cloudy
10:53 AM 73.9 °F - 61.0 °F 64% 30.21 in 10.0 mi South 11.5 mph - N/A   Partly Cloudy
11:53 AM 75.0 °F - 60.1 °F 60% 30.19 in 10.0 mi South 11.5 mph - N/A   Partly Cloudy
12:53 PM 79.0 °F - 60.1 °F 52% 30.15 in 10.0 mi South 10.4 mph - N/A   Partly Cloudy
1:53 PM 80.1 °F 80.7 °F 59.0 °F 48% 30.12 in 10.0 mi South 16.1 mph 23.0 mph N/A   Scattered Clouds
2:53 PM 82.0 °F 82.4 °F 60.1 °F 47% 30.09 in 10.0 mi South 11.5 mph - N/A   Mostly Cloudy
3:53 PM 80.1 °F 80.6 °F 57.9 °F 47% 30.07 in 10.0 mi South 16.1 mph - N/A   Partly Cloudy
4:53 PM 79.0 °F - 57.9 °F 48% 30.05 in 10.0 mi SSE 16.1 mph 20.7 mph N/A   Partly Cloudy
5:53 PM 75.9 °F - 53.1 °F 45% 30.06 in 8.0 mi South 16.1 mph - N/A   Clear
6:53 PM 72.0 °F - 55.0 °F 55% 30.07 in 10.0 mi South 10.4 mph - N/A   Partly Cloudy
7:53 PM 71.1 °F - 59.0 °F 66% 30.09 in 10.0 mi South 11.5 mph - N/A   Overcast
8:53 PM 70.0 °F - 61.0 °F 73% 30.09 in 10.0 mi South 8.1 mph - N/A   Overcast
9:53 PM 69.1 °F - 63.0 °F 81% 30.06 in 6.0 mi SSE 8.1 mph - N/A   Haze
10:53 PM 66.9 °F - 62.1 °F 84% 30.06 in 5.0 mi South 5.8 mph - N/A   Haze
11:53 PM 66.9 °F - 63.0 °F 87% 30.05 in 8.0 mi South 10.4 mph - N/A   Overcast